Weather History for El Dorado, AR

Change the Weather History Date:

Thursday, April 4, 2013

  Actual Average Record
Temperature  
Mean Temperature 44 °F 61 °F  
Max Temperature 46 °F 73 °F 89 °F (1958)
Min Temperature 41 °F 48 °F 26 °F (1987)
Degree Days  
Heating Degree Days 21 6  
Month to date heating degree days 56 24  
Since 1 July heating degree days 2529 2560  
Cooling Degree Days 0 2  
Month to date cooling degree days 0 6  
Year to date cooling degree days 12 34  
Moisture  
Dew Point 41 °F    
Average Humidity 91    
Maximum Humidity 100    
Minimum Humidity 82    
Precipitation  
Precipitation 0.17 in 0.13 in 1.35 in (1969)
Month to date precipitation 0.64 0.54  
Year to date precipitation 10.36 14.38  
Snow  
Snow 0.00 in - - ()
Month to date snowfall  
Since 1 July snowfall 0.1  
Snow Depth 0.00 in    
Sea Level Pressure  
Sea Level Pressure 30.07 in    
Wind  
Wind Speed 7 mph (NW)    
Max Wind Speed 13 mph    
Max Gust Speed 18 mph    
Visibility 8 miles    
Events Rain    
T = Trace of Precipitation, MM = Missing Value Source: NWS Daily Summary

Daily Weather History Graph

Daily Weather History Graph

Search for Another Location

Airport:

Trip Planner

Search our weather history database for the weather conditions in past years. The results will help you decide how hot, cold, wet, or windy it might be!

Date:

Astronomy

Apr. 04, 2013 Rise Set
Actual Time 6:54 AM CDT 7:33 PM CDT
Civil Twilight 6:29 AM CDT 7:59 PM CDT
Nautical Twilight 6:00 AM CDT 8:28 PM CDT
Astronomical Twilight 5:30 AM CDT 8:58 PM CDT
Moon 3:04 AM CDT (4/4) 2:08 PM CDT (4/4)
Length of Visible Light 13h 29m
Length of Day
12h 39m
Waning Crescent, 33% of the Moon is Illuminated
Apr 4
Waning Crescent
Apr 10
New
Apr 18
First Quarter
Apr 25
Full
May 2
Last Quarter

Hourly Weather History & Observations

Time (CDT) Temp. Windchill Dew Point Humidity Pressure Visibility Wind Dir Wind Speed Gust Speed Precip Events Conditions
12:53 AM 42.1 °F 39.2 °F 37.9 °F 85% 30.10 in 10.0 mi Variable 4.6 mph - N/A   Overcast
1:53 AM 42.1 °F 40.2 °F 37.9 °F 85% 30.08 in 10.0 mi North 3.5 mph - N/A   Overcast
2:53 AM 42.1 °F 40.2 °F 37.9 °F 85% 30.06 in 10.0 mi NW 3.5 mph - N/A   Overcast
3:53 AM 42.1 °F 39.2 °F 39.0 °F 89% 30.04 in 7.0 mi WNW 4.6 mph - 0.00 in Rain Light Rain
4:53 AM 41.0 °F 35.2 °F 39.9 °F 96% 30.02 in 6.0 mi NNE 9.2 mph - 0.01 in Rain Light Rain
5:04 AM 41.0 °F 37.1 °F 39.2 °F 93% 30.02 in 2.5 mi North 5.8 mph - 0.06 in Rain Heavy Rain
5:18 AM 41.0 °F 36.4 °F 39.2 °F 93% 30.03 in 3.0 mi NW 6.9 mph - 0.10 in Rain Rain
5:34 AM 41.0 °F 37.1 °F 39.2 °F 93% 30.04 in 3.0 mi WNW 5.8 mph - 0.15 in Rain Rain
5:48 AM 41.0 °F 36.4 °F 39.2 °F 93% 30.03 in 6.0 mi NW 6.9 mph - 0.16 in Rain Light Rain
5:53 AM 41.0 °F 36.4 °F 39.9 °F 96% 30.04 in 7.0 mi NW 6.9 mph - 0.16 in Rain Light Rain
6:53 AM 41.0 °F 36.4 °F 41.0 °F 100% 30.06 in 8.0 mi NW 6.9 mph - 0.00 in   Overcast
7:36 AM 41.0 °F 38.0 °F 41.0 °F 100% 30.06 in 8.0 mi NNW 4.6 mph - N/A   Overcast
7:53 AM 41.0 °F 36.4 °F 39.9 °F 96% 30.08 in 8.0 mi NW 6.9 mph - N/A   Overcast
8:53 AM 42.1 °F 37.1 °F 41.0 °F 96% 30.09 in 7.0 mi NW 8.1 mph - N/A   Overcast
9:11 AM 42.8 °F 38.0 °F 41.0 °F 93% 30.09 in 6.0 mi NW 8.1 mph - N/A   Overcast
9:53 AM 43.0 °F 38.2 °F 42.1 °F 97% 30.09 in 6.0 mi North 8.1 mph - N/A   Overcast
10:53 AM 43.0 °F 37.2 °F 41.0 °F 93% 30.10 in 8.0 mi NNW 10.4 mph - N/A   Overcast
11:20 AM 44.6 °F 40.7 °F 42.8 °F 93% 30.10 in 10.0 mi NNW 6.9 mph - N/A   Overcast
11:53 AM 45.0 °F 39.7 °F 41.0 °F 86% 30.09 in 10.0 mi North 10.4 mph - N/A   Overcast
12:53 PM 45.0 °F 40.1 °F 41.0 °F 86% 30.09 in 10.0 mi NW 9.2 mph - N/A   Overcast
1:53 PM 45.0 °F 40.1 °F 41.0 °F 86% 30.07 in 10.0 mi NNW 9.2 mph - N/A   Overcast
2:53 PM 46.0 °F 42.5 °F 41.0 °F 83% 30.06 in 10.0 mi NNW 6.9 mph - N/A   Overcast
3:53 PM 45.0 °F 40.1 °F 41.0 °F 86% 30.06 in 6.0 mi WNW 9.2 mph - 0.00 in Rain Light Rain
4:37 PM 44.6 °F 40.7 °F 42.8 °F 93% 30.06 in 3.0 mi NW 6.9 mph - 0.00 in Rain Light Rain
4:50 PM 44.6 °F 39.2 °F 42.8 °F 93% 30.06 in 4.0 mi NW 10.4 mph - 0.00 in   Overcast
4:53 PM 44.1 °F 39.0 °F 43.0 °F 96% 30.06 in 5.0 mi NW 9.2 mph - 0.00 in   Overcast
5:20 PM 44.6 °F 39.7 °F 42.8 °F 93% 30.06 in 10.0 mi NW 9.2 mph - N/A   Overcast
5:53 PM 45.0 °F 40.1 °F 43.0 °F 93% 30.06 in 10.0 mi NW 9.2 mph - N/A   Overcast
6:26 PM 44.6 °F 40.2 °F 42.8 °F 93% 30.07 in 10.0 mi NW 8.1 mph - N/A   Overcast
6:39 PM 44.6 °F 40.7 °F 42.8 °F 93% 30.07 in 8.0 mi NW 6.9 mph - N/A   Overcast
6:53 PM 45.0 °F 40.6 °F 42.1 °F 90% 30.08 in 10.0 mi NW 8.1 mph - N/A   Overcast
7:53 PM 45.0 °F 41.2 °F 42.1 °F 90% 30.09 in 10.0 mi NNW 6.9 mph - N/A   Overcast
8:02 PM 44.6 °F 41.4 °F 42.8 °F 93% 30.09 in 10.0 mi NNW 5.8 mph - N/A   Overcast
8:13 PM 44.6 °F 40.7 °F 42.8 °F 93% 30.09 in 10.0 mi NNW 6.9 mph - N/A   Overcast
8:26 PM 44.6 °F 40.7 °F 42.8 °F 93% 30.09 in 10.0 mi NNW 6.9 mph - N/A   Overcast
8:35 PM 44.6 °F 40.7 °F 42.8 °F 93% 30.10 in 10.0 mi NW 6.9 mph - N/A   Overcast
8:53 PM 45.0 °F 41.2 °F 42.1 °F 90% 30.10 in 10.0 mi NW 6.9 mph - N/A   Overcast
9:53 PM 45.0 °F 43.5 °F 42.1 °F 90% 30.11 in 10.0 mi NW 3.5 mph - N/A   Overcast
10:53 PM 44.1 °F 41.5 °F 41.0 °F 89% 30.13 in 10.0 mi WNW 4.6 mph - N/A   Overcast
11:53 PM 44.1 °F - 41.0 °F 89% 30.13 in 10.0 mi Calm Calm - N/A   Overcast